Estación de Las Viñas

Ultimos registro cada 15 minutos 47
Estación Fecha / Hora Temperatura Humedad Lluvia Velocidad Dirección Radiación Presion
47 Las Viñas 07-05-2026 11:45 11,4 80 0 0 164 610 1029,1
46 Las Viñas 07-05-2026 11:30 11,1 84 0 0 152 454 1029,4
45 Las Viñas 07-05-2026 11:15 10,9 85 0 0 149 292 1029,6
44 Las Viñas 07-05-2026 11:00 10,3 87 0 0 214 253 1029,2
43 Las Viñas 07-05-2026 10:45 10,1 87 0 0 162 236 1029,2
42 Las Viñas 07-05-2026 10:30 9,7 80 0 0,4 156 425 1029,3
41 Las Viñas 07-05-2026 10:15 9,1 77 0 0 189 408 1029,3
40 Las Viñas 07-05-2026 10:00 8,6 77 0 0 189 244 1029,2
39 Las Viñas 07-05-2026 09:45 8,4 77 0 0 189 158 1029,2
38 Las Viñas 07-05-2026 09:30 8,3 76 0 0 189 113 1029,2
37 Las Viñas 07-05-2026 09:15 8,2 75 0 0 185 179 1029,1
36 Las Viñas 07-05-2026 09:00 7,9 76 0 0 149 102 1028,7
35 Las Viñas 07-05-2026 08:45 7,7 76 0 0 139 54 1028,5
34 Las Viñas 07-05-2026 08:30 7,6 77 0 0 139 46 1028,2
33 Las Viñas 07-05-2026 08:15 7,5 78 0 0 139 30 1027,9
32 Las Viñas 07-05-2026 07:45 7,6 78 0 0 139 16 1027,7
31 Las Viñas 07-05-2026 07:30 7,6 78 0 0 139 0 1027,8
30 Las Viñas 07-05-2026 07:15 7,7 78 0 0 139 0 1027,8
29 Las Viñas 07-05-2026 07:00 7,7 78 0 0 139 0 1027,8
28 Las Viñas 07-05-2026 06:45 7,7 78 0 0 139 0 1027,6
27 Las Viñas 07-05-2026 06:30 7,8 78 0,2 0 139 0 1027,4
26 Las Viñas 07-05-2026 06:15 7,8 78 0 0 175 0 1027,7
25 Las Viñas 07-05-2026 06:00 7,8 78 0 0 216 0 1027,4
24 Las Viñas 07-05-2026 05:45 7,8 79 0 0 216 0 1027,1
23 Las Viñas 07-05-2026 05:30 7,8 79 0,4 0 216 0 1026,9
22 Las Viñas 07-05-2026 05:15 8 78 0 0 166 0 1027
21 Las Viñas 07-05-2026 05:00 8 78 0,6 0 166 0 1026,7
20 Las Viñas 07-05-2026 04:45 8,1 78 0,2 0 166 0 1026,5
19 Las Viñas 07-05-2026 04:30 8 78 0 0 166 0 1026,3
18 Las Viñas 07-05-2026 04:15 8 78 0 0 166 0 1026,4
17 Las Viñas 07-05-2026 04:00 8 78 0 0 166 0 1026,3
16 Las Viñas 07-05-2026 03:45 8,1 78 0 0 166 0 1026,1
15 Las Viñas 07-05-2026 03:30 8 78 0 0 166 0 1025,9
14 Las Viñas 07-05-2026 03:15 7,9 78 0 0 166 0 1025,8
13 Las Viñas 07-05-2026 03:00 7,8 79 0 0 166 0 1025,8
12 Las Viñas 07-05-2026 02:45 7,7 79 0 0 166 0 1025,9
11 Las Viñas 07-05-2026 02:30 7,7 79 0 0 166 0 1025,7
10 Las Viñas 07-05-2026 02:15 7,5 79 0 0 166 0 1025,7
9 Las Viñas 07-05-2026 02:00 7,4 79 0 0 166 0 1025,7
8 Las Viñas 07-05-2026 01:45 7,3 79 0 0 166 0 1025,4
7 Las Viñas 07-05-2026 01:30 7 80 0 0 166 0 1025,3
6 Las Viñas 07-05-2026 01:15 6,8 81 0 0 166 0 1025,2
5 Las Viñas 07-05-2026 01:00 6,8 82 0 0 166 0 1025,1
4 Las Viñas 07-05-2026 00:45 6,6 82 0 0 166 0 1024,7
3 Las Viñas 07-05-2026 00:30 6,2 85 0 0 166 0 1024,9
2 Las Viñas 07-05-2026 00:15 6,3 86 0 0 166 0 1024,9
1 Las Viñas 07-05-2026 00:00 6,6 86 0 0 166 0 1024,7